This demonstration page uses our WeatherBlox Daily Observations layout. Learn more.

Left ArrowRight Arrow

30.21309, -93.2044

Hourly Observations for July 10, 2022

Temp ( °F °C ) Dew Point ( °F °C ) Humidity (%) Winds ( mph kmh ) Pressure ( in mb ) Visibility ( mi km ) Precip ( " mm )
12:15 am 00:15 Clear 85 29.3 78 25.4 80 80 SW 9 15 29.98 1015 10 16 0.00 0.00
12:35 am 00:35 Clear 85 29.3 78 25.4 80 80 SW 10 17 29.98 1015 10 16 0.00 0.00
12:55 am 00:55 Clear 85 29.3 78 25.3 79 79 SW 10 17 29.99 1016 10 16 0.00 0.00
1:15 am 01:15 Clear 85 29.3 78 25.3 79 79 SW 8 13 29.98 1015 10 16 0.00 0.00
1:35 am 01:35 Clear 85 29.2 78 25.5 80 80 SW 7 11 29.98 1015 10 16 0.00 0.00
1:55 am 01:55 Clear 84 28.9 78 25.4 81 81 SW 8 13 29.97 1015 10 16 0.00 0.00
2:15 am 02:15 Clear 84 29 77 25.1 80 80 SW 10 17 29.96 1015 10 16 0.00 0.00
2:35 am 02:35 Clear 84 29 77 25 79 79 SW 12 19 29.96 1015 10 16 0.00 0.00
2:55 am 02:55 Clear 84 28.9 77 25 80 80 WSW 9 15 29.96 1015 10 16 0.00 0.00
3:15 am 03:15 Clear 84 28.9 77 25 80 80 WSW 9 15 29.96 1015 10 16 0.00 0.00
3:35 am 03:35 Clear 84 28.8 77 25 80 80 WSW 12 19 29.95 1014 10 16 0.00 0.00
3:55 am 03:55 Clear 84 28.8 77 25.1 80 80 WSW 12 19 29.95 1014 10 16 0.00 0.00
4:15 am 04:15 Clear 84 28.7 77 25 80 80 SW 12 19 29.95 1014 10 16 0.00 0.00
4:35 am 04:35 Clear 84 28.7 77 25.1 81 81 WSW 9 15 29.95 1014 10 16 0.00 0.00
4:55 am 04:55 Clear 83 28.5 77 25.1 82 82 WSW 10 17 29.95 1014 10 16 0.00 0.00
5:15 am 05:15 Clear 83 28.5 77 25.2 82 82 WSW 8 13 29.95 1014 10 16 0.00 0.00
5:35 am 05:35 Clear 83 28.4 77 25.2 83 83 WSW 9 15 29.96 1015 10 16 0.00 0.00
6:00 am 06:00 Partly Cloudy 82 28 79 26 89 89 WSW 9 15 29.95 1014 10 16 0.00 0.00
6:55 am 06:55 Partly Cloudy 82 28 79 26 89 89 WSW 10 17 29.96 1015 10 16 0.00 0.00
7:50 am 07:50 Partly Cloudy 84 29 79 26 84 84 WSW 9 15 29.98 1015 10 16 0.00 0.00
8:51 am 08:51 Mostly Cloudy with Thunderstorms 84 29 79 26 84 84 WSW 8 13 30.01 1016 10 16 0.00 0.00
9:49 am 09:49 Mostly Cloudy with Thunderstorms 79 26 73 23 84 84 WSW 13 20 30.01 1016 3 5 0.00 0.00
10:53 am 10:53 Partly Cloudy 82 28 77 25 84 84 SW 9 15 29.99 1016 10 16 0.00 0.00
11:51 am 11:51 Partly Cloudy 84 29 77 25 79 79 SW 8 13 29.98 1015 10 16 0.00 0.00
12:52 pm 12:52 Mostly Sunny 88 31 77 25 70 70 WSW 12 19 29.95 1014 10 16 0.00 0.00
1:52 pm 13:52 Mostly Sunny 90 32 77 25 67 67 W 14 22 29.93 1014 10 16 0.00 0.00
2:46 pm 14:46 Partly Cloudy 91 33 79 26 67 67 SW 10 17 29.91 1013 10 16 0.00 0.00
3:50 pm 15:50 Partly Cloudy 93 34 77 25 59 59 WSW 14 22 29.89 1012 10 16 0.00 0.00
4:46 pm 16:46 Partly Cloudy 95 35 79 26 60 60 SSW 12 19 29.87 1011 10 16 0.00 0.00
5:50 pm 17:50 Mostly Sunny 91 33 81 27 71 71 SSW 14 22 29.85 1011 10 16 0.00 0.00
6:45 pm 18:45 Partly Cloudy with Thunderstorms 90 32 81 27 75 75 SSW 13 20 29.84 1010 10 16 0.00 0.00
7:01 pm 19:01 Mostly Cloudy with Thunderstorms 90 32 81 27 75 75 WSW 12 19 29.87 1011 10 16 0.00 0.00
7:50 pm 19:50 Mostly Cloudy with Thunderstorms 75 24 72 22 89 89 SSE 12 19 29.89 1012 7 11 0.00 0.00
8:45 pm 20:45 Mostly Cloudy with Mist and Fog 75 24 72 22 89 89 WSW 12 19 29.89 1012 10 16 0.00 0.00
9:45 pm 21:45 Mostly Clear 79 26 72 22 79 79 E 8 13 29.89 1012 10 16 0.00 0.00
10:15 pm 22:15 Clear 76 24.3 72 22.4 89 89 E 3 6 29.89 1012 10 16 0.00 0.00
10:35 pm 22:35 Clear 75 24.1 72 22.4 90 90 Calm 29.89 1012 10 16 0.00 0.00
10:55 pm 22:55 Clear 76 24.3 72 22.4 89 89 NE 7 11 29.89 1012 10 16 0.00 0.00
11:15 pm 23:15 Clear 76 24.3 72 22.3 89 89 Calm 29.89 1012 10 16 0.00 0.00
11:35 pm 23:35 Clear 77 25.1 73 22.5 86 86 NW 3 6 29.88 1012 10 16 0.00 0.00
11:55 pm 23:55 Clear 76 24.2 73 22.5 90 90 N 5 7 29.89 1012 10 16 0.00 0.00

Powered by AerisWeather